Other Public Products
Issued by NWS Grand Forks, ND

Home | Current Version | Previous Version | Graphics & Text | Print | Product List | Glossary On
Versions: 1 2 3 4 5 6 7 8 9 10 11 12 13 14 15 16 17 18 19 20 21 22 23 24 25 26 27 28 29 30 31 32 33 34 35 36 37 38 39 40 41 42 43 44 45 46 47 48 49 50
000
FPUS83 KFGF 241410
OPUFGF
PRAIRIE TO PINES WEATHER ROUNDUP
NATIONAL WEATHER SERVICE EASTERN NORTH DAKOTA/GRAND FORKS ND
900 AM CDT MON APR 24 2017

 **SATELLITE DATA USED TO AUGMENT SKY COVER AT AUTOMATED STATIONS**
 *****  WEATHER ACROSS EASTERN NORTH DAKOTA  *****

CITY           SKY/WX    TMP DP  RH WIND       PRES   REMARKS
GRAND FORKS    LGT RAIN  36  33  89 E14       29.71F
GRAND FORKS AF LGT RAIN  34  32  92 E12       29.70F WCI  25
GRAND CITY NWS NOT AVBL
BUXTON         NOT AVBL
DEVILS LAKE    FLURRIES  31  29  92 NE20G25   29.69  WCI  19
FARGO          FAIR      40  33  76 NE10G21   29.62F
WAHPETON ARPT  FAIR      48  36  61 SE15      29.59F
$$

 *****  WEATHER ACROSS CENTRAL AND WESTERN NORTH DAKOTA  *****

CITY           SKY/WX    TMP DP  RH WIND       PRES   REMARKS
JAMESTOWN      MIX PCPN  34  32  92 NE12      29.63R
BISMARCK       CLOUDY    34  32  92 NE9       29.66F
MINOT          FLURRIES  31  26  82 NE9       29.72F WCI  23
MINOT AFB      MIX PCPN  30  25  83 NE12      29.72F WCI  20
GARRISON         N/A     30  28  92 E10       29.68F WCI  21
WILLISTON      FLURRIES  31  28  89 NE9       29.73S WCI  23
DICKINSON      CLOUDY    29  28  96 N6        29.64F FOG     WCI  23
HETTINGER      CLOUDY    32  30  92 NW14      29.66R WCI  22
$$

 *****  OTHER OBSERVATIONS NORTHEAST NORTH DAKOTA  *****

CITY           SKY/WX    TMP DP  RH WIND       PRES   REMARKS
WALHALLA       NOT AVBL
LANGDON        CLOUDY    30  23  74 NE18      29.74F WCI  18
CAVALIER       CLOUDY    34  28  80 E15G24    29.78F WCI  24
GRAFTON          N/A     34  32  93 E16G22    29.77F WCI  23
CANDO          NOT AVBL
FORT TOTTEN      N/A     31  31 100 E8        29.95S WCI  23
ROLLA          CLOUDY    28  19  69 NE21G26   29.75F WCI  15
RUGBY          NOT AVBL
 ***** THE ABOVE OBSERVATIONS ARE NON NWS ARE NOT QUALITY
        CONTROLLED AND MAY MIS-REPORT RAIN FOR SNOW...
$$

 *****  OTHER OBSERVATIONS SOUTHEAST NORTH DAKOTA *****

CITY           SKY/WX    TMP DP  RH WIND       PRES   REMARKS
COOPERSTOWN    DRIZZLE   32  32 100 E15G21    29.66R WCI  22
VALLEY CITY    LGT RAIN  32  32 100 E13G18    29.63F WCI  22
OAKES          NOT AVBL
GWINNER        PTSUNNY   39  36  87 MISG      29.57F
SHEYENNE NWR     N/A     38  32  80 NE9       29.95S
BUFFALO        NOT AVBL
WYNDMERE         N/A     48  39  71 SE10        N/A
 ***** THE ABOVE OBSERVATIONS ARE NON NWS ARE NOT QUALITY
       CONTROLLED AND MAY MIS-REPORT RAIN FOR SNOW...
$$

  *****  WEATHER ACROSS NORTHERN MINNESOTA  *****

CITY           SKY/WX    TMP DP  RH WIND       PRES   REMARKS
FLAG ISLAND    LGT SNOW  30  28  93 E12G23    29.84F WCI  21
WARROAD        CLOUDY    34  30  86 E17G26    29.82F WCI  23
ROSEAU         CLOUDY    34  28  80 E16G24    29.83R WCI  23
HALLOCK        CLOUDY    36  30  80 E17G26    29.78F
THF RVR FALLS  LGT RAIN  34  30  86 E16       29.75F WCI  23
HALSTAD          N/A     36  32  84 E12         N/A
FOSSTON        FAIR      34  28  80 E9        29.71F
BAUDETTE       MIX PCPN  32  28  85 E21G33    29.80F WCI  20
WASKISH        PTSUNNY   32  28  86 E16G22    29.79F WCI  21
CROOKSTON      MIX PCPN  34  32  93 E16       29.71F WCI  23
$$
  *****  WEATHER ACROSS CENTRAL AND WEST MINNESOTA  *****

CITY           SKY/WX    TMP DP  RH WIND       PRES   REMARKS
BEMIDJI        PTSUNNY   34  30  86 E14G21    29.73S WCI  25
PARK RAPIDS    FAIR      40  29  64 E12       29.69F
WADENA         FAIR      41  34  75 E14       29.67F
DETROIT LAKES  FAIR      39  32  75 SE13G21   29.65F
MOORHEAD       FAIR      41  34  75 NE6       29.63F
FERGUS FALLS   FAIR      48  36  61 SE16      29.61S
ELBOW LAKE     FAIR      51  37  57 E15G21    29.62S
MORRIS MN      FAIR      54  37  54 SE17      29.60F
STAPLES        FAIR      43  34  70 SE7       29.69F
WHEATON        FAIR      52  37  58 SE14      29.59F
$$
  *****  WEATHER ELSEWHERE ACROSS MINNESOTA  *****

CITY           SKY/WX    TMP DP  RH WIND       PRES   REMARKS
DULUTH         FAIR      34  26  72 E30       29.86F WCI  20
INTRNTL FALLS  MIX PCPN  31  27  85 E13G25    29.87F WCI  21
ELY            FAIR      30  25  80 E18G24    29.91F WCI  18
CLOQUET        FAIR      36  27  69 E14G23    29.84F
BRAINERD       FAIR      43  36  76 SE10G22   29.73F
HIBBING        FAIR      33  27  78 SE17G25   29.83F WCI  22
ALEXANDRIA     FAIR      49  37  63 SE12      29.66F
SAINT CLOUD    FAIR      50  38  63 SE8G17    29.72F
MINNEAPOLIS    PTSUNNY   58  35  42 S12       29.80S
$$

  *****  WEATHER ACROSS SOUTH DAKOTA  *****

CITY           SKY/WX    TMP DP  RH WIND       PRES   REMARKS
SIOUX FALLS    CLOUDY    55  38  52 S23G31    29.63F
BROOKINGS      FAIR      53  37  54 S18       29.60F
WATERTOWN      FAIR      52  37  56 S20       29.57F
HURON          FAIR      54  38  54 S21       29.53S
SISSETON         N/A     55  41  59 S7        29.55F
ABERDEEN       FAIR      46  39  76 NE5       29.52F
MITCHELL       FAIR      55  38  52 S18G26    29.57S
PIERRE         CLOUDY    40  36  86 NW15      29.54R
MOBRIDGE       CLOUDY    38  33  82 N15       29.56F
RAPID CITY     FOG       39  38  96 N20       29.61S VSB 1
$$

  *****  SOME WEATHER IN NEARBY STATES *****

CITY           SKY/WX    TMP DP  RH WIND       PRES   REMARKS
GLASGOW MT     CLOUDY    33  31  92 E9        29.69F
GREAT FALLS MT FAIR      44  36  73 SW7       29.64F
CHEYENNE WY    FAIR      48  30  49 NW18G25   29.73F
SCOTTSBLUFF NE FAIR      55  40  56 NW16      29.67R
OMAHA NE       PTSUNNY   58  36  43 S22G32    29.75F
DES MOINES IA  CLOUDY    59  37  44 S15       29.87S
DAVENPORT IA   FAIR      59  29  31 SE15      29.98F
CHICAGO IL     FAIR      52  39  61 CALM      30.02S
EAU CLAIRE WI  FAIR      46  35  65 SE9       29.88F
LA CROSSE WI   FAIR      52  41  66 E7        29.92S
$$

  *****  SOME NATIONAL WEATHER *****

CITY           SKY/WX    TMP DP  RH WIND       PRES   REMARKS
LA GUARDIA NY  CLOUDY    55  44  66 NE6       30.18R
RALEIGH NC     HVY RAIN  54  53  97 NE12      29.89S FOG
ATLANTA GA     DRIZZLE   54  52  93 N8        29.77R
NEW ORLEANS LA FAIR      63  52  67 W12       29.94R
OKLAHOMA CITY  FAIR      55  43  63 S10       29.90S
ALBUQUERQUE NM FAIR      57  30  35 S8        29.92R
SALT LAKE CITY CLOUDY    52  40  63 SE9       29.69F
LOS ANGELES CA MOCLDY    60  53  77 CALM      29.90R
BOISE ID       LGT RAIN  46  42  86 NW7       29.71R
SEATTLE WA     CLOUDY    45  43  93 NE5       29.73F
$$

*** WEATHER ACROSS MANITOBA...SASKATCHEWAN AND ONTARIO ***
                ***ONTARIO***

CITY           SKY/WX    TMP DP  RH WIND       PRES   REMARKS
GERALDTON      PTSUNNY   30  10  43 E14       30.18F WCI  20
THUNDER BAY    CLOUDY    32  28  86 E20       30.09F WCI  20
SIOUX LOOKOUT  CLOUDY    30  14  51 E10G18    30.03F WCI  21
TORONTO        MOSUNNY   48  36  61 E13       30.18S
BIG TROUT LK   SUNNY     12   0  57 S6        30.33R WCI   3
PICKLE LAKE    PTSUNNY   21   9  58 NE9       30.16F WCI  11
DRYDEN         CLOUDY    30  21  69 E12G17    29.97F WCI  21
KENORA         LGT SNOW  30  23  74 E16G24    29.90F WCI  19
$$
                *** MANITOBA***

CITY           SKY/WX    TMP DP  RH WIND       PRES   REMARKS
BRANDON        CLOUDY    32  16  51 E26G36    29.84F WCI  18
DAUPHIN        CLOUDY    30  21  69 E17       29.96F WCI  18
ISLAND LAKE    PTSUNNY   18   3  53 E5        30.22F WCI  11
PILOT MOUND      N/A     30  18  59 NE20        N/A  WCI  18
THE PAS        CLOUDY    25   7  46 E12G17    30.12F WCI  14
THOMPSON       MOSUNNY   12  -4  48 NE6       30.27S WCI   3
WINNIPEG       CLOUDY    32  18  55 NE17      29.86F WCI  21
LYNN LAKE      SUNNY      5  -6  61 E8        30.22R WCI  -8
CHURCHILL      MOSUNNY  -11 -15  84 W7        30.44R WCI -26
GILLAM         MOSUNNY    5  -8  56 E6        30.38R WCI  -6
$$
                ***SASKATCHEWAN***

CITY           SKY/WX    TMP DP  RH WIND       PRES   REMARKS
ESTEVAN        LGT SNOW  27  25  93 E14       29.78S VSB 5/8 WCI  15
KINDERSLEY     CLOUDY    30  30 100 E15       29.71S WCI  19
LLOYDMINSTER   FRZ RAIN  30  30 100 SE15      29.76F WCI  19
PRINCE ALBERT  LGT SNOW  28  25  86 E15G23    29.92S FOG     WCI  17
REGINA         FLURRIES  27  23  86 E21       29.82R WCI  13
YORKTON        LGT SNOW  27  25  93 E14G20    29.90F WC



USA.gov is the U.S. government's official web portal to all federal, state and local government web resources and services.